Location: Newark
(42.8481°N, 0.4872°E)
Time: 09:12:17
(UTC+00:00)

Vanguard 2 - Pass Details

Date: 28 October 2020
Orbit: 554 x 2937 km, 32.9° (Epoch: 26 November)

Event Time Altitude Azimuth Distance (km) Brightness Sun altitude
Rises 00:07:17 0° 274° (W) 6,492 12.2 -59.9°
Enters shadow 00:09:21 - 272° (W) 6,076 12.0 -59.8°
Reaches altitude 10° 00:11:36 10° 269° (W) 5,632 - -59.7°
Maximum altitude 00:28:02 48° 203° (SSW) 3,465 - -58.7°
Drops below altitude 10° 00:42:31 10° 135° (SE) 4,998 - -57.6°
Sets 00:46:06 0° 130° (SE) 5,737 - -57.3°
